Вернуться в каталог

FENGYUN 1C DEB

АктивенSSO
NORAD 30891·DEBRIS·🇨🇳 China

Запущен May 10, 1999 с Taiyuan Satellite Launch Center

Loading…

Ближайшие Пролёты (ближайшие 24 часа)

TLE

СвежийSource: Space-Track

Эпоха: Sep 14, 2026, 21:49 UTC

1 30891U 99025AYD 26257.90935564  .00000339  00000-0  22774-3 0  9999
2 30891  98.7522 301.7636 0057183 132.2293  40.2568 14.06351926998635

Отслеживайте FENGYUN 1C DEB в реальном времени с AllMySat

Download on the App Store